WB9PAR Weather Reports


time (UTC)temp
F
wind
direction
speed
knots
gust
knots
rain 1hr
in
rain 24hr
in
rain mn
in
humidity
%
barometer
mb
20260906052148 73 320 0.0 0.0 0.00 0.00 0.00 92 1045.9
20260906051644 73 305 0.0 0.0 0.00 0.00 0.00 92 1045.8
20260906051143 73 317 0.0 0.0 0.00 0.00 0.00 92 1045.7
20260906050639 73 324 0.0 0.0 0.00 0.00 0.00 92 1045.8
20260906050134 73 318 0.0 0.0 0.00 0.00 0.00 92 1045.6
20260906045632 73 329 0.0 0.0 0.00 0.00 0.00 91 1045.4
20260906045127 73 321 0.0 0.0 0.00 0.00 0.00 91 1045.4
20260906044623 74 306 0.9 0.9 0.00 0.00 0.00 91 1045.6
20260906044119 74 287 0.9 1.7 0.00 0.00 0.00 91 1045.6
20260906043615 74 339 0.9 1.7 0.00 0.00 0.00 91 1045.6
20260906043110 74 323 0.9 0.9 0.00 0.00 0.00 90 1045.7
20260906042609 74 288 0.9 1.7 0.00 0.00 0.00 90 1045.5
20260906042104 74 38 3.5 6.1 0.00 0.00 0.00 90 1045.6
20260906041600 74 26 3.5 3.5 0.00 0.00 0.00 90 1045.4
20260906041055 74 338 1.7 1.7 0.00 0.00 0.00 91 1045.5
20260906040550 74 308 0.0 0.0 0.00 0.00 0.00 91 1045.6
20260906040045 74 317 0.9 0.9 0.00 0.00 0.00 91 1045.3
20260906035541 74 79 0.0 0.9 0.00 0.00 0.00 91 1045.5
20260906035037 75 350 0.9 0.9 0.00 0.00 0.00 91 1045.2
20260906034536 75 14 2.6 2.6 0.00 0.00 0.00 91 1045.2
20260906034031 75 12 0.9 2.6 0.00 0.00 0.00 91 1045.2
20260906033526 75 336 0.9 0.9 0.00 0.00 0.00 91 1045.4
20260906033022 75 335 1.7 1.7 0.00 0.00 0.00 91 1045.4
20260906032519 75 306 2.6 2.6 0.00 0.00 0.00 91 1045.4
20260906032018 75 12 2.6 2.6 0.00 0.00 0.00 90 1045.2
20260906031514 75 310 2.6 2.6 0.00 0.00 0.00 90 1045.1
20260906031010 75 322 0.0 0.0 0.00 0.00 0.00 90 1045.4
20260906030509 75 346 1.7 2.6 0.00 0.00 0.00 90 1045.3
20260906030009 75 39 3.5 3.5 0.00 0.00 0.00 89 1045.3
20260906025508 76 117 2.6 2.6 0.00 0.00 0.00 89 1045.4
20260906025007 76 328 0.9 0.9 0.00 0.00 0.00 89 1045.5
20260906024502 76 45 2.6 3.5 0.00 0.00 0.00 88 1045.2
20260906024002 76 234 0.9 0.9 0.00 0.00 0.00 88 1045.2
20260906023458 76 327 0.0 0.0 0.00 0.00 0.00 87 1045.1
20260906022953 76 136 2.6 5.2 0.00 0.00 0.00 87 1045.2
20260906022448 77 176 0.9 0.9 0.00 0.00 0.00 86 1045.0
20260906021944 77 14 1.7 1.7 0.00 0.00 0.00 85 1044.9
20260906021444 77 315 1.7 1.7 0.00 0.00 0.00 85 1044.9
20260906020938 77 338 0.9 1.7 0.00 0.00 0.00 86 1045.0
20260906020433 77 325 0.9 0.9 0.00 0.00 0.00 87 1044.9
20260906015927 76 23 1.7 2.6 0.00 0.00 0.00 88 1044.9
20260906015427 76 335 0.0 0.0 0.00 0.00 0.00 88 1044.8
20260906014926 77 349 1.7 2.6 0.00 0.00 0.00 88 1044.8
20260906014426 77 313 0.9 0.9 0.00 0.00 0.00 87 1044.8
20260906013922 77 331 0.0 0.9 0.00 0.00 0.00 86 1044.4
20260906013418 76 327 0.9 1.7 0.00 0.00 0.00 86 1044.1
20260906012913 76 319 2.6 2.6 0.00 0.00 0.00 86 1044.2
20260906012408 76 318 2.6 2.6 0.00 0.00 0.00 85 1044.1
20260906011907 76 320 0.0 0.0 0.00 0.00 0.00 84 1044.1
20260906011403 75 327 0.0 0.0 0.00 0.00 0.00 84 1044.0
20260906010858 75 310 0.0 0.0 0.00 0.00 0.00 85 1043.9
20260906010354 75 311 0.0 0.0 0.00 0.00 0.00 85 1044.0
20260906005850 76 311 0.0 0.0 0.00 0.00 0.00 84 1044.1
20260906005349 76 311 0.0 0.0 0.00 0.00 0.00 84 1044.1
20260906004847 76 311 0.0 0.0 0.00 0.00 0.00 83 1043.9
20260906004347 76 311 0.0 0.0 0.00 0.00 0.00 83 1044.0
20260906003842 76 308 0.0 0.0 0.00 0.00 0.00 82 1043.8
20260906003338 76 320 0.0 0.0 0.00 0.00 0.00 81 1043.6
20260906002833 77 322 0.0 0.0 0.00 0.00 0.00 80 1043.7
20260906002332 77 322 0.0 0.0 0.00 0.00 0.00 79 1043.4
20260906001828 77 322 0.0 0.0 0.00 0.00 0.00 79 1043.4
20260906001324 77 308 0.0 0.0 0.00 0.00 0.00 79 1043.5
20260906000819 78 308 0.0 0.0 0.00 0.00 0.00 78 1043.3
20260906000313 78 308 0.0 0.0 0.00 0.00 0.00 78 1043.4
20260905235808 78 308 0.0 0.0 0.00 0.00 0.00 77 1043.4
20260905235308 78 304 1.7 1.7 0.00 0.00 0.00 76 1043.6
20260905234804 79 304 0.0 0.0 0.00 0.00 0.00 76 1043.3
20260905234259 79 310 0.0 0.0 0.00 0.00 0.00 75 1043.3
20260905233754 79 302 0.9 0.9 0.00 0.00 0.00 74 1043.3
20260905233254 79 300 0.0 0.0 0.00 0.00 0.00 74 1043.5
20260905232753 80 299 0.9 0.9 0.00 0.00 0.00 74 1043.7
20260905232249 80 316 0.9 1.7 0.00 0.00 0.00 74 1043.5
20260905231745 80 334 0.9 1.7 0.00 0.00 0.00 73 1043.6
20260905231240 80 299 0.0 0.0 0.00 0.00 0.00 73 1043.7
20260905230736 80 320 0.9 0.9 0.00 0.00 0.00 72 1043.8
20260905230234 81 271 0.0 0.0 0.00 0.00 0.00 73 1043.7
20260905225734 81 324 1.7 2.6 0.00 0.00 0.00 73 1044.0
20260905225229 81 12 3.5 3.5 0.00 0.00 0.00 73 1043.8
20260905224728 81 342 4.3 5.2 0.00 0.00 0.00 73 1043.5
20260905224223 82 320 0.9 1.7 0.00 0.00 0.00 73 1043.6
20260905223720 82 55 3.5 5.2 0.00 0.00 0.00 71 1043.5
20260905223216 83 307 0.0 0.9 0.00 0.00 0.00 71 1043.3
20260905222712 85 233 2.6 5.2 0.00 0.00 0.00 68 1043.4
20260905222211 89 322 1.7 1.7 0.00 0.00 0.00 63 1043.2
20260905221707 91 328 1.7 3.5 0.00 0.00 0.00 60 1042.7
20260905221204 92 293 1.7 1.7 0.00 0.00 0.00 59 1042.4
20260905220659 91 306 1.7 1.7 0.00 0.00 0.00 61 1042.8
20260905220155 92 287 0.0 0.0 0.00 0.00 0.00 61 1042.6
20260905215654 92 288 0.9 0.9 0.00 0.00 0.00 60 1042.9
20260905215150 92 291 0.9 0.9 0.00 0.00 0.00 60 1042.7
20260905214646 91 291 0.0 0.9 0.00 0.00 0.00 62 1042.8
20260905214141 91 302 1.7 2.6 0.00 0.00 0.00 62 1042.4
20260905213636 92 314 0.9 0.9 0.00 0.00 0.00 61 1042.3
20260905213131 91 294 0.0 0.9 0.00 0.00 0.00 63 1042.7
20260905212627 90 293 1.7 1.7 0.00 0.00 0.00 64 1042.9
20260905212126 91 322 0.9 1.7 0.00 0.00 0.00 62 1042.7
20260905211621 91 302 0.9 0.9 0.00 0.00 0.00 62 1042.5
20260905211117 91 293 1.7 1.7 0.00 0.00 0.00 61 1042.6
20260905210613 91 292 0.9 0.9 0.00 0.00 0.00 60 1042.7
20260905210107 91 287 0.9 1.7 0.00 0.00 0.00 59 1042.8
20260905205607 91 317 0.9 1.7 0.00 0.00 0.00 59 1042.9
20260905205106 90 296 0.9 0.9 0.00 0.00 0.00 61 1042.9
20260905204600 90 301 1.7 2.6 0.00 0.00 0.00 61 1043.3
20260905204056 90 295 0.0 0.0 0.00 0.00 0.00 60 1042.9
20260905203556 91 285 4.3 6.1 0.00 0.00 0.00 58 1043.4
20260905203051 91 277 0.0 0.0 0.00 0.00 0.00 59 1043.2
20260905202546 93 295 0.0 0.0 0.00 0.00 0.00 57 1043.3
20260905202042 92 289 0.0 0.0 0.00 0.00 0.00 57 1043.3
20260905201538 92 301 1.7 1.7 0.00 0.00 0.00 56 1043.4
20260905201037 93 310 4.3 5.2 0.00 0.00 0.00 54 1043.4
20260905200532 93 301 3.5 3.5 0.00 0.00 0.00 53 1043.3
20260905200032 94 297 4.3 5.2 0.00 0.00 0.00 53 1043.5
20260905195527 94 274 1.7 1.7 0.00 0.00 0.00 55 1043.5
20260905195022 94 297 0.9 0.9 0.00 0.00 0.00 51 1043.5
20260905194522 94 304 0.9 1.7 0.00 0.00 0.00 53 1043.5
20260905194022 94 294 0.9 0.9 0.00 0.00 0.00 52 1043.3
20260905193522 94 330 2.6 2.6 0.00 0.00 0.00 53 1043.7
20260905193017 93 299 0.0 0.9 0.00 0.00 0.00 51 1043.7
20260905192512 95 294 1.7 1.7 0.00 0.00 0.00 50 1043.7
20260905192009 95 292 0.0 0.0 0.00 0.00 0.00 51 1043.7
20260905191507 94 296 1.7 1.7 0.00 0.00 0.00 51 1043.7
20260905191006 93 289 0.9 0.9 0.00 0.00 0.00 52 1043.9
20260905190504 93 274 1.7 2.6 0.00 0.00 0.00 53 1043.9
20260905190003 93 293 1.7 1.7 0.00 0.00 0.00 53 1044.1
20260905185458 93 291 1.7 2.6 0.00 0.00 0.00 54 1043.9
20260905184957 93 285 3.5 5.2 0.00 0.00 0.00 52 1044.2
20260905184452 93 283 1.7 2.6 0.00 0.00 0.00 51 1044.3
20260905183951 93 304 1.7 1.7 0.00 0.00 0.00 52 1044.2
20260905183445 93 288 1.7 1.7 0.00 0.00 0.00 51 1044.2
20260905182940 93 192 2.6 2.6 0.00 0.00 0.00 53 1044.6
20260905182440 93 291 0.9 0.9 0.00 0.00 0.00 54 1044.4
20260905181935 93 297 0.0 0.0 0.00 0.00 0.00 53 1044.4
20260905181435 93 283 0.9 0.9 0.00 0.00 0.00 52 1044.6
20260905180934 93 275 0.0 0.0 0.00 0.00 0.00 55 1044.6
20260905180429 92 285 0.9 0.9 0.00 0.00 0.00 55 1044.6
20260905175924 92 293 0.9 0.9 0.00 0.00 0.00 52 1044.5
20260905175424 91 256 1.7 1.7 0.00 0.00 0.00 54 1044.6
20260905174919 91 279 0.0 0.0 0.00 0.00 0.00 55 1045.0
20260905174415 91 296 1.7 1.7 0.00 0.00 0.00 56 1044.9
20260905173910 90 278 1.7 2.6 0.00 0.00 0.00 54 1044.9
20260905173407 90 307 0.0 0.9 0.00 0.00 0.00 56 1044.7
20260905172907 90 275 1.7 2.6 0.00 0.00 0.00 55 1044.9
20260905172404 90 252 0.9 1.7 0.00 0.00 0.00 58 1045.1
20260905171900 89 277 0.0 0.9 0.00 0.00 0.00 60 1045.0
20260905171357 88 224 0.9 0.9 0.00 0.00 0.00 58 1045.0
20260905170853 89 261 0.9 1.7 0.00 0.00 0.00 57 1045.3
20260905170349 88 240 2.6 3.5 0.00 0.00 0.00 56 1045.4
20260905165848 87 271 0.0 0.0 0.00 0.00 0.00 61 1045.3
20260905165343 87 164 1.7 1.7 0.00 0.00 0.00 58 1045.4
20260905164838 86 276 0.9 0.9 0.00 0.00 0.00 62 1045.4
20260905164333 86 237 1.7 2.6 0.00 0.00 0.00 60 1045.9
20260905163828 85 267 1.7 2.6 0.00 0.00 0.00 64 1045.7
20260905163325 83 258 0.9 0.9 0.00 0.00 0.00 70 1045.6
20260905162821 81 276 0.9 0.9 0.00 0.00 0.00 71 1045.7
20260905162321 80 256 0.0 0.9 0.00 0.00 0.00 73 1045.8
20260905161821 80 263 0.0 0.9 0.00 0.00 0.00 74 1045.9
20260905161320 80 264 0.0 0.0 0.00 0.00 0.00 76 1046.0
20260905160819 80 287 0.0 0.0 0.00 0.00 0.00 74 1046.2
20260905160313 81 296 0.0 0.0 0.00 0.00 0.00 72 1046.3
20260905155808 83 295 0.0 0.0 0.00 0.00 0.00 68 1046.3
20260905155307 84 272 0.9 0.9 0.00 0.00 0.00 61 1046.0
20260905154801 86 180 0.9 1.7 0.00 0.00 0.00 58 1045.9
20260905154257 86 287 0.0 0.0 0.00 0.00 0.00 61 1046.0
20260905153752 85 293 0.0 0.9 0.00 0.00 0.00 62 1046.0
20260905153248 84 218 0.9 1.7 0.00 0.00 0.00 61 1045.8
20260905152743 84 268 0.9 0.9 0.00 0.00 0.00 63 1045.9
20260905152243 84 245 0.9 0.9 0.00 0.00 0.00 63 1045.8
20260905151742 84 233 2.6 3.5 0.00 0.00 0.00 60 1045.8
20260905151238 83 226 1.7 2.6 0.00 0.00 0.00 63 1045.8
20260905150738 82 103 2.6 3.5 0.00 0.00 0.00 63 1045.7
20260905150237 83 133 4.3 5.2 0.00 0.00 0.00 62 1045.9
20260905145735 82 185 1.7 1.7 0.00 0.00 0.00 64 1045.9
20260905145230 82 127 3.5 6.1 0.00 0.00 0.00 64 1045.6
20260905144729 82 200 0.0 0.9 0.00 0.00 0.00 67 1045.7
20260905144224 82 233 1.7 1.7 0.00 0.00 0.00 66 1045.8
20260905143723 81 137 2.6 2.6 0.00 0.00 0.00 67 1045.9
20260905143223 81 283 0.9 0.9 0.00 0.00 0.00 68 1046.0
20260905142721 80 234 0.9 0.9 0.00 0.00 0.00 70 1046.0
20260905142216 79 180 4.3 6.1 0.00 0.00 0.00 69 1045.8
20260905141712 79 90 1.7 2.6 0.00 0.00 0.00 68 1046.0
20260905141208 78 306 0.0 0.0 0.00 0.00 0.00 70 1045.9
20260905140702 78 174 3.5 7.8 0.00 0.00 0.00 70 1046.3
20260905140157 79 326 1.7 3.5 0.00 0.00 0.00 69 1046.1
20260905135652 78 271 1.7 2.6 0.00 0.00 0.00 70 1046.2
20260905135148 79 134 1.7 3.5 0.00 0.00 0.00 69 1046.1
20260905134647 77 126 2.6 3.5 0.00 0.00 0.00 71 1046.1
20260905134146 77 125 2.6 3.5 0.00 0.00 0.00 72 1046.1
20260905133642 76 152 3.5 5.2 0.00 0.00 0.00 73 1046.3
20260905133141 76 51 2.6 3.5 0.00 0.00 0.00 73 1046.3
20260905132641 76 177 1.7 2.6 0.00 0.00 0.00 74 1046.4
20260905132136 75 123 1.7 1.7 0.00 0.00 0.00 75 1046.3
20260905131631 75 137 2.6 2.6 0.00 0.00 0.00 75 1046.4
20260905131127 75 121 5.2 7.8 0.00 0.00 0.00 75 1046.6
20260905130627 75 56 3.5 5.2 0.00 0.00 0.00 76 1046.5
20260905130127 75 177 1.7 1.7 0.00 0.00 0.00 76 1046.3
20260905125626 74 138 3.5 5.2 0.00 0.00 0.00 77 1046.1
20260905125122 74 343 2.6 3.5 0.00 0.00 0.00 78 1046.0
20260905124619 73 156 2.6 3.5 0.00 0.00 0.00 79 1046.1
20260905124115 73 122 3.5 5.2 0.00 0.00 0.00 79 1045.9
20260905123610 73 117 3.5 5.2 0.00 0.00 0.00 80 1045.9
20260905123107 73 247 1.7 1.7 0.00 0.00 0.00 80 1045.7
20260905122607 73 294 0.9 0.9 0.00 0.00 0.00 80 1045.9
20260905122107 72 193 1.7 2.6 0.00 0.00 0.00 80 1045.9
20260905121601 72 79 3.5 5.2 0.00 0.00 0.00 80 1046.0
20260905121057 72 128 4.3 5.2 0.00 0.00 0.00 81 1046.0
20260905120556 72 138 5.2 6.1 0.00 0.00 0.00 81 1045.7
20260905120051 72 165 1.7 2.6 0.00 0.00 0.00 82 1045.7
20260905115550 72 154 2.6 5.2 0.00 0.00 0.00 81 1045.8
20260905115045 71 125 2.6 3.5 0.00 0.00 0.00 82 1045.9
20260905114544 71 111 2.6 2.6 0.00 0.00 0.00 82 1046.2
20260905114043 71 180 0.9 2.6 0.00 0.00 0.00 82 1046.0
20260905113538 71 8 0.9 0.9 0.00 0.00 0.00 83 1046.0
20260905113033 71 249 0.9 1.7 0.00 0.00 0.00 83 1046.1
20260905112529 71 283 0.0 0.0 0.00 0.00 0.00 83 1046.0
20260905112025 71 317 0.9 1.7 0.00 0.00 0.00 83 1045.8
20260905111525 72 283 0.9 0.9 0.00 0.00 0.00 83 1045.9
20260905111024 72 258 4.3 6.1 0.00 0.00 0.00 83 1045.7
20260905110523 72 334 1.7 1.7 0.00 0.00 0.00 82 1045.7
20260905110019 72 139 3.5 3.5 0.00 0.00 0.00 82 1046.0
20260905105513 72 329 0.9 0.9 0.00 0.00 0.00 82 1046.1
20260905105012 72 168 4.3 6.1 0.00 0.00 0.00 82 1045.8
20260905104509 73 153 1.7 2.6 0.00 0.00 0.00 81 1045.8
20260905104008 73 33 0.9 1.7 0.00 0.00 0.00 81 1046.0
20260905103503 73 146 3.5 5.2 0.00 0.00 0.00 80 1045.8
20260905102959 73 114 7.8 9.6 0.00 0.00 0.00 80 1046.1
20260905102455 74 123 4.3 5.2 0.00 0.00 0.00 80 1046.3
20260905101950 74 65 1.7 3.5 0.00 0.00 0.00 82 1046.0
20260905101449 75 48 3.5 7.8 0.00 0.00 0.00 82 1045.7
20260905100948 75 50 3.5 5.2 0.00 0.00 0.00 89 1045.4
20260905100444 74 328 1.7 2.6 0.00 0.00 0.00 95 1045.2
20260905095943 74 248 0.0 0.0 0.00 0.00 0.00 97 1044.9
20260905095444 74 248 0.0 0.0 0.00 0.00 0.00 96 1044.6
20260905094939 74 248 0.0 0.0 0.00 0.00 0.00 96 1044.8
20260905094435 74 248 0.0 0.0 0.00 0.00 0.00 96 1044.7
20260905093933 74 248 0.0 0.0 0.00 0.00 0.00 96 1044.4
20260905093429 74 248 0.0 0.0 0.00 0.00 0.00 96 1044.7
20260905092924 74 248 0.0 0.0 0.00 0.00 0.00 96 1044.6
20260905092419 74 248 0.0 0.0 0.00 0.00 0.00 96 1044.9
20260905091915 74 248 0.0 0.0 0.00 0.00 0.00 96 1044.7
20260905091415 74 248 0.0 0.0 0.00 0.00 0.00 96 1044.6
20260905090914 74 248 0.0 0.0 0.00 0.00 0.00 96 1044.5
20260905090409 74 248 0.0 0.0 0.00 0.00 0.00 96 1044.7
20260905085909 73 248 0.0 0.0 0.00 0.00 0.00 96 1044.4
20260905085408 73 248 0.0 0.0 0.00 0.00 0.00 96 1044.5
20260905084905 73 248 0.0 0.0 0.00 0.00 0.00 95 1044.4
20260905084403 74 248 0.0 0.0 0.00 0.00 0.00 95 1044.5
20260905083858 74 245 0.0 0.0 0.00 0.00 0.00 95 1044.6
20260905083354 74 245 0.0 0.0 0.00 0.00 0.00 95 1044.3
20260905082849 74 244 0.0 0.0 0.00 0.00 0.00 95 1044.5
20260905082345 74 244 0.0 0.0 0.00 0.00 0.00 94 1044.4
20260905081841 74 244 0.0 0.0 0.00 0.00 0.00 94 1044.4
20260905081335 74 244 0.0 0.0 0.00 0.00 0.00 94 1044.4
20260905080835 74 244 0.0 0.0 0.00 0.00 0.00 93 1044.3
20260905080335 75 244 0.0 0.0 0.00 0.00 0.00 93 1044.4
20260905075833 75 244 0.0 0.0 0.00 0.00 0.00 93 1044.2
20260905075328 75 244 0.0 0.0 0.00 0.00 0.00 92 1044.2
20260905074827 75 244 0.0 0.0 0.00 0.00 0.00 92 1044.3
20260905074323 75 244 0.0 0.0 0.00 0.00 0.00 91 1044.3
20260905073818 76 244 0.0 0.0 0.00 0.00 0.00 91 1044.1
20260905073314 76 244 0.0 0.0 0.00 0.00 0.00 91 1043.8
20260905072814 76 244 0.0 0.0 0.00 0.00 0.00 90 1043.7
20260905072309 76 244 0.0 0.0 0.00 0.00 0.00 90 1043.5
20260905071806 76 244 0.0 0.0 0.00 0.00 0.00 90 1043.6
20260905071301 76 247 0.0 0.0 0.00 0.00 0.00 90 1043.6
20260905070756 76 249 0.0 0.0 0.00 0.00 0.00 89 1043.8
20260905070253 76 249 0.9 0.9 0.00 0.00 0.00 89 1043.6
20260905065751 76 248 0.0 0.0 0.00 0.00 0.00 89 1043.7
20260905065250 76 248 0.0 0.0 0.00 0.00 0.00 89 1043.9
20260905064746 76 250 0.0 0.0 0.00 0.00 0.00 89 1043.8
20260905064241 76 250 0.0 0.0 0.00 0.00 0.00 88 1044.0
20260905063739 76 250 0.0 0.0 0.00 0.00 0.00 88 1044.0
20260905063236 76 251 0.0 0.0 0.00 0.00 0.00 88 1044.2
20260905062732 76 252 0.9 0.9 0.00 0.00 0.00 88 1044.4
20260905062231 76 252 0.0 0.0 0.00 0.00 0.00 87 1044.3
20260905061726 76 247 0.0 0.0 0.00 0.00 0.00 87 1044.4
20260905061221 77 247 0.0 0.0 0.00 0.00 0.00 87 1044.6
20260905060720 77 247 0.9 0.9 0.00 0.00 0.00 87 1044.7
20260905060218 77 247 0.0 0.0 0.00 0.00 0.00 87 1044.7
20260905055715 77 247 0.0 0.0 0.00 0.00 0.00 86 1044.7
20260905055211 77 247 0.0 0.0 0.00 0.00 0.00 86 1044.6
20260905054706 77 247 0.9 0.9 0.00 0.00 0.00 86 1044.6
20260905054203 77 250 0.0 0.0 0.00 0.00 0.00 86 1044.7
20260905053702 77 256 0.0 0.0 0.00 0.00 0.00 86 1044.8
20260905053157 77 256 0.0 0.0 0.00 0.00 0.00 86 1044.8
20260905052656 77 256 0.0 0.0 0.00 0.00 0.00 86 1044.9